Location: Rometta
(44.2000°N, 10.0500°E)
Time: 22:46:46
(UTC+00:00)

X-37B - Pass Details

Date: 20 January 2021
Orbit: 383 x 391 km, 45.0° (Epoch: 27 February)

Event Time Altitude Azimuth Distance (km) Brightness Sun altitude
Rises 17:29:07 0° 230° (SW) 2,264 5.7 -13.4°
Reaches altitude 10° 17:31:17 10° 221° (SW) 1,414 4.3 -13.8°
Maximum altitude 17:34:13 34° 154° (SSE) 659 1.6 -14.3°
Enters shadow 17:35:18 26° 113° (ESE) 810 1.7 -14.5°
